This is the latest recevied weather packets stored in our database for station/object N1CTF-9. If no packets are shown the sender has not sent any weather packets the latest 1 day(s).
| Time | Temp. | Humidity | Pressure | Rain* | Wind** | Luminosity | Snow |
|---|---|---|---|---|---|---|---|
| 1778117074 | 10.56° C | 55% | 1014 hPa | 0 mm | - | 0 W/m² | - |
| 1778116474 | 10.56° C | 56% | 1014 hPa | 0 mm | - | 0 W/m² | - |
| 1778115874 | 10.56° C | 54% | 1013.9 hPa | 0 mm | - | 0 W/m² | - |
| 1778115274 | 10.56° C | 53% | 1013.4 hPa | 0 mm | - | 0 W/m² | - |
| 1778114674 | 11.11° C | 53% | 1013.4 hPa | 0 mm | - | 40 W/m² | - |
| 1778114074 | 11.11° C | 54% | 1013.3 hPa | 0 mm | - | 170 W/m² | - |
| 1778113474 | 11.11° C | 52% | 1013 hPa | 0 mm | - | 530 W/m² | - |
| 1778112874 | 11.11° C | 49% | 1012.9 hPa | 0 mm | - | 112 W/m² | - |
| 1778112274 | 11.67° C | 49% | 1012.9 hPa | 0 mm | - | 189 W/m² | - |
| 1778111074 | 11.67° C | 49% | 1013 hPa | 0 mm | - | 373 W/m² | - |
| 1778110474 | 11.67° C | 46% | 1012.6 hPa | 0 mm | - | 652 W/m² | - |
| 1778109874 | 11.67° C | 47% | 1012.8 hPa | 0 mm | - | 630 W/m² | - |
| 1778109274 | 12.22° C | 46% | 1013 hPa | 0 mm | - | 561 W/m² | - |
| 1778108674 | 12.22° C | 49% | 1013 hPa | 0 mm | - | 833 W/m² | - |
| 1778108074 | 12.22° C | 47% | 1012.8 hPa | 0 mm | - | 110 W/m² | - |
| 1778107474 | 12.22° C | 49% | 1013.1 hPa | 0 mm | - | 124 W/m² | - |
| 1778106874 | 12.22° C | 49% | 1013.1 hPa | 0 mm | - | 825 W/m² | - |
| 1778106274 | 12.22° C | 48% | 1013 hPa | 0 mm | - | 875 W/m² | - |
| 1778105674 | 12.78° C | 47% | 1013.1 hPa | 0 mm | - | 880 W/m² | - |
| 1778105074 | 12.78° C | 49% | 1012.9 hPa | 0 mm | - | 151 W/m² | - |
| 1778104474 | 12.78° C | 47% | 1012.8 hPa | 0 mm | - | 184 W/m² | - |
| 1778103874 | 12.78° C | 45% | 1012.7 hPa | 0 mm | - | 171 W/m² | - |
| 1778103274 | 12.22° C | 48% | 1012.3 hPa | 0 mm | - | 220 W/m² | - |
| 1778102674 | 12.78° C | 47% | 1012.4 hPa | 0 mm | - | 167 W/m² | - |
| 1778102074 | 12.78° C | 45% | 1012.4 hPa | 0 mm | - | 211 W/m² | - |
* Rain latest hour (hover to see other rain measurements)
** Current wind speed in m/s (hover to see current wind gust speed)